Regional Weather Roundup
Issued by NWS Jackson, KY

Home | Current Version | Previous Version | Text Only | Print | Product List | Glossary Off
Versions: 1 2 3 4 5 6 7 8 9 10 11 12 13 14 15 16 17 18 19 20 21 22 23 24 25 26 27 28 29 30 31 32 33 34 35 36 37 38 39 40 41 42 43 44 45 46 47 48 49 50

562
ASUS43 KJKL 191310
RWRJKL

EAST KENTUCKY HOURLY WEATHER ROUNDUP
NATIONAL WEATHER SERVICE JACKSON KY
800 AM EST SUN NOV 19 2017

NOTE: "FAIR" INDICATES FEW OR NO CLOUDS BELOW 12,000 FEET WITH
NO SIGNIFICANT WEATHER AND/OR OBSTRUCTIONS TO VISIBILITY.

* THESE REPORTS ARE NOT UNDER NWS QUALITY CONTROL AND MAY NOT
  REPORT WEATHER SUCH AS PRECIPITATION AND FOG.

KYZ079-080-083-085-087-088-110-112-115-119-120-191400
...EASTERN KENTUCKY...

CITY           SKY/WX    TMP DP  RH WIND       PRES   REMARKS
JACKSON        CLOUDY    37  32  82 NW8       29.96R WCI  31
LONDON         CLOUDY    38  31  76 NW8       30.00R WCI  32
SOMERSET*      CLOUDY    37  32  81 NW5       30.04R WCI  34
MONTICELLO*    CLOUDY    40  31  70 NW10      30.04R WCI  33
WILLIAMSBURG*  CLOUDY    37  36  93 CALM      30.01R
MIDDLESBORO*   CLOUDY    39  31  73 W7        30.00R WCI  34
HARLAN APT*    CLOUDY    37  32  81 SW12G17   29.97R WCI  30
PIKE CO APT*   LGT RAIN  37  37  99 W7        29.92R WCI  31
BIG SANDY APT* CLOUDY    39  32  77 NW8       29.93R WCI  33
MOREHEAD APT*  CLOUDY    37  30  75 W8        29.97R WCI  31
$$

KYZ035-036-041-042-044-050-067-078-099-191400
...CENTRAL KENTUCKY...

CITY           SKY/WX    TMP DP  RH WIND       PRES   REMARKS
MT STERLING*   CLOUDY    37  32  81 W8        29.99R WCI  31
FLEMING/MASON* CLOUDY    37  31  79 W15G22    29.97  WCI  28
DANVILLE*      CLOUDY    37  32  81 W3        30.02R
LEXINGTON      CLOUDY    38  29  70 W7        29.99R WCI  33
FRANKFORT      CLOUDY    39  30  70 W3        29.99R
LOUISVILLE     CLOUDY    40  31  70 W18G25    30.03R WCI  31
LEBANON*         N/A     39  32  75 W6        30.02R WCI  35
GLASGOW*       CLOUDY    39  32  76 W8        30.05R WCI  34
BOWLING GREEN  CLOUDY    41  32  70 NW8       30.07R
$$

KYZ091>093-OHZ055-061-077-WVZ005-015-034-035-042-191400
...SOUTHERN OHIO/WEST VIRGINIA...

CITY           SKY/WX    TMP DP  RH WIND       PRES   REMARKS
COVINGTON      CLOUDY    38  32  79 W7        29.95R WCI  33
COLUMBUS       CLOUDY    39  33  79 W9        29.86R WCI  33
DAYTON         CLOUDY    37  33  85 W14       29.91R WCI  28
WILMINGTON     CLOUDY    37  32  82 W13       29.91R WCI  29
HUNTINGTON     CLOUDY    41  31  67 W10G18    29.91R
CHARLESTON     CLOUDY    39  34  82 W9        29.88R WCI  33
PINEVILLE*       N/A     38  35  89 MISG      29.91R
BECKLEY        MIX PCPN  35  32  88 NW13G20   29.81R WCI  26
BLUEFIELD      LGT SNOW  32  30  92 W13G25    29.82R FOG     WCI  22
LOGAN CO APT*  CLOUDY    37  34  87 W8G17     29.88R WCI  31
$$

VAZ002-007-008-TNZ017-027-036-066-071-191400
...SOUTHWEST VIRGINIA/EAST TENNESSEE...

CITY           SKY/WX    TMP DP  RH WIND       PRES   REMARKS
WISE*          LGT SNOW  34  34 100 NW7       29.90R WCI  28
JONESVILLE*    CLOUDY    37  32  81 NW5       29.99R WCI  34
ABINGDON*      RAIN      38  35  89 NW6       29.90R WCI  33
BRISTOL        MOCLDY    40  36  86 W9        29.94R WCI  34
MORRISTOWN*    CLOUDY    41  32  70 W10       29.98R
SEVIERVILLE*   CLOUDY    41  37  87 CALM      30.01R
KNOXVILLE      CLOUDY    42  34  73 CALM      30.00R
OAK RIDGE      PTCLDY    42  32  67 CALM      30.02R
CROSSVILLE     CLOUDY    36  28  73 NW9       30.01R WCI  29
NASHVILLE      MOCLDY    42  31  64 NW10      30.09R
$$

...KEY TO REMARKS...
VSB - VISIBILITY IN MILES
WCI - WIND CHILL INDEX
HX  - HEAT INDEX

$$




USA.gov is the U.S. government's official web portal to all federal, state and local government web resources and services.